Time,TemperatureF,DewpointF,PressureIn,WindDirection,WindDirectionDegrees,WindSpeedMPH,WindSpeedGustMPH,Humidity,HourlyPrecipIn,Conditions,Clouds,dailyrainin,SoftwareType,DateUTC
2014-09-23 00:02:00,46.0,41.2,29.80,NW,313,0.0,6.0,83,0.00,,,0.00,meteohub,2014-09-23 04:02:00,
2014-09-23 00:07:00,46.2,41.4,29.80,North,0,0.0,6.0,83,0.00,,,0.00,meteohub,2014-09-23 04:07:00,
2014-09-23 00:12:00,46.0,41.2,29.80,WNW,283,0.0,6.0,83,0.00,,,0.00,meteohub,2014-09-23 04:12:00,
2014-09-23 00:17:00,46.0,41.5,29.80,WNW,283,0.0,5.0,84,0.00,,,0.00,meteohub,2014-09-23 04:17:00,
2014-09-23 00:22:00,45.9,41.4,29.81,WNW,284,0.0,5.0,84,0.00,,,0.00,meteohub,2014-09-23 04:22:00,
2014-09-23 00:27:00,45.7,41.4,29.81,WNW,284,0.0,3.0,85,0.00,,,0.00,meteohub,2014-09-23 04:27:00,
2014-09-23 00:32:00,45.7,41.4,29.81,WNW,284,0.0,2.0,85,0.00,,,0.00,meteohub,2014-09-23 04:32:00,
2014-09-23 00:37:00,45.7,41.4,29.81,NE,54,3.0,3.0,85,0.00,,,0.00,meteohub,2014-09-23 04:37:00,
2014-09-23 00:42:00,45.9,41.5,29.81,North,5,1.0,4.0,85,0.00,,,0.00,meteohub,2014-09-23 04:42:00,
2014-09-23 00:47:00,45.9,41.5,29.82,North,11,2.0,5.0,85,0.00,,,0.00,meteohub,2014-09-23 04:47:00,
2014-09-23 00:52:00,45.9,41.5,29.82,WNW,293,0.0,6.0,85,0.00,,,0.00,meteohub,2014-09-23 04:52:00,
2014-09-23 00:57:00,45.9,41.5,29.83,WNW,302,3.0,6.0,85,0.00,,,0.00,meteohub,2014-09-23 04:57:00,
2014-09-23 01:02:00,45.9,41.5,29.83,WNW,290,2.0,8.0,85,0.00,,,0.00,meteohub,2014-09-23 05:02:00,
2014-09-23 01:07:00,45.9,41.5,29.83,WNW,296,0.0,8.0,85,0.00,,,0.00,meteohub,2014-09-23 05:07:00,
2014-09-23 01:12:00,45.9,41.5,29.83,WNW,296,0.0,8.0,85,0.00,,,0.00,meteohub,2014-09-23 05:12:00,
2014-09-23 01:17:00,45.9,41.5,29.83,West,266,1.0,3.0,85,0.00,,,0.00,meteohub,2014-09-23 05:17:00,
2014-09-23 01:22:00,45.7,41.4,29.83,West,276,1.0,7.0,85,0.00,,,0.00,meteohub,2014-09-23 05:22:00,
2014-09-23 01:27:00,45.7,41.4,29.83,WNW,294,1.0,7.0,85,0.00,,,0.00,meteohub,2014-09-23 05:27:00,
2014-09-23 01:32:00,45.7,41.4,29.83,WSW,251,1.0,4.0,85,0.00,,,0.00,meteohub,2014-09-23 05:32:00,
2014-09-23 01:37:00,45.7,41.4,29.84,NW,309,2.0,6.0,85,0.00,,,0.00,meteohub,2014-09-23 05:37:00,
2014-09-23 01:42:00,45.7,41.4,29.84,NE,45,0.0,6.0,85,0.00,,,0.00,meteohub,2014-09-23 05:42:00,
2014-09-23 01:47:00,45.7,41.4,29.84,NE,48,0.0,3.0,85,0.00,,,0.00,meteohub,2014-09-23 05:47:00,
2014-09-23 01:52:00,45.7,41.2,29.84,WNW,298,0.0,4.0,84,0.00,,,0.00,meteohub,2014-09-23 05:52:00,
2014-09-23 01:54:00,45.7,41.2,29.84,West,279,0.0,4.0,84,0.00,,,0.00,meteohub,2014-09-23 05:54:00,
2014-09-23 01:59:00,45.9,41.4,29.84,NNW,330,1.0,5.0,84,0.00,,,0.00,meteohub,2014-09-23 05:59:00,
2014-09-23 02:04:00,45.9,40.6,29.85,WNW,300,0.0,5.0,82,0.00,,,0.00,meteohub,2014-09-23 06:04:00,
2014-09-23 02:09:00,45.9,40.6,29.85,West,259,4.0,5.0,82,0.00,,,0.00,meteohub,2014-09-23 06:09:00,
2014-09-23 02:15:00,45.9,40.3,29.85,WNW,291,2.0,9.0,81,0.00,,,0.00,meteohub,2014-09-23 06:15:00,
2014-09-23 02:20:00,45.9,40.1,29.85,NNW,327,0.0,11.0,80,0.00,,,0.00,meteohub,2014-09-23 06:20:00,